Weather History for Fremont, MI

Change the Weather History Date:

Tuesday, July 31, 2012

  Actual Average (KMKG) Record (KMKG)
Temperature  
Mean Temperature 70 °F 71 °F  
Max Temperature 80 °F 80 °F 93 °F (1975)
Min Temperature 60 °F 62 °F 42 °F (1934)
Degree Days  
Heating Degree Days 0 0  
Month to date heating degree days 4  
Since 1 June heating degree days 77  
Since 1 July heating degree days 11  
Cooling Degree Days 5 6  
Month to date cooling degree days 202  
Year to date cooling degree days 336  
Since 1 June cooling degree days 307  
Growing Degree Days 20 (Base 50)    
Moisture  
Dew Point 64 °F    
Average Humidity 81    
Maximum Humidity 100    
Minimum Humidity 58    
Precipitation  
Precipitation 0.00 in 0.09 in 2.10 in (1904)
Month to date precipitation 2.37  
Year to date precipitation 17.19  
Snow  
Snow 0.00 in 0.00 in - ()
Month to date snowfall 0.0  
Since 1 June snowfall 0.0  
Since 1 July snowfall 0.0  
Snow Depth -    
Sea Level Pressure  
Sea Level Pressure 29.90 in    
Wind  
Wind Speed 7 mph (NW)    
Max Wind Speed 20 mph    
Max Gust Speed 32 mph    
Visibility 10 miles    
Events Rain    
T = Trace of Precipitation, MM = Missing Value Source: NWS Daily Summary

Daily Weather History Graph

Daily Weather History Graph

Search for Another Location

Airport:

Trip Planner

Search our weather history database for the weather conditions in past years. The results will help you decide how hot, cold, wet, or windy it might be!

Date:

Astronomy

Jul. 31, 2012 Rise Set
Actual Time 6:33 AM EDT 9:06 PM EDT
Civil Twilight 6:00 AM EDT 9:39 PM EDT
Nautical Twilight 5:19 AM EDT 10:19 PM EDT
Astronomical Twilight 4:33 AM EDT 11:05 PM EDT
Moon 7:55 PM EDT 4:52 AM EDT
Length of Visible Light 15h 38m
Length of Day
14h 33m
Waxing Gibbous, 97% of the Moon is Illuminated
Jul 31
Waxing Gibbous
Aug 1
Full
Aug 9
Last Quarter
Aug 17
New
Aug 24
First Quarter

Hourly Weather History & Observations

Time (EDT) Temp. Heat Index Dew Point Humidity Pressure Visibility Wind Dir Wind Speed Gust Speed Precip Events Conditions
12:15 AM 76.6 °F - 63.7 °F 64% 29.83 in 10.0 mi SSE 6.9 mph - N/A   Mostly Cloudy
12:36 AM 76.8 °F - 64.4 °F 65% 29.90 in 10.0 mi NNW 19.6 mph 32.2 mph N/A   Mostly Cloudy
12:56 AM 64.0 °F - 63.5 °F 98% 29.94 in 0.5 mi NNW 13.8 mph 29.9 mph N/A Rain Heavy Rain
1:15 AM 64.8 °F - 63.7 °F 96% 29.92 in 1.8 mi NW 8.1 mph - N/A Rain Heavy Rain
1:36 AM 66.2 °F - 65.5 °F 98% 29.90 in 7.0 mi Calm Calm - N/A Rain Light Rain
1:56 AM 64.8 °F - 64.4 °F 99% 29.87 in 10.0 mi East 12.7 mph - N/A Rain Rain
2:15 AM 64.4 °F - 63.9 °F 98% 29.89 in 10.0 mi SE 10.4 mph - N/A   Scattered Clouds
2:36 AM 63.7 °F - 63.1 °F 98% 29.88 in 10.0 mi SE 4.6 mph - N/A   Clear
2:56 AM 63.3 °F - 63.0 °F 99% 29.87 in 10.0 mi SE 3.5 mph - N/A   Clear
3:16 AM 63.1 °F - 62.8 °F 99% 29.86 in 10.0 mi SE 5.8 mph - N/A   Clear
3:36 AM 63.0 °F - 62.6 °F 99% 29.87 in 10.0 mi SSE 4.6 mph - N/A   Scattered Clouds
3:56 AM 62.8 °F - 62.6 °F 99% 29.86 in 10.0 mi Calm Calm - N/A   Clear
4:16 AM 62.6 °F - 62.4 °F 99% 29.86 in 10.0 mi Calm Calm - N/A   Scattered Clouds
4:35 AM 62.4 °F - 62.4 °F 100% 29.85 in 10.0 mi SSE 4.6 mph - N/A   Clear
4:56 AM 62.6 °F - 62.6 °F 100% 29.85 in 10.0 mi SSE 3.5 mph - N/A   Clear
5:15 AM 62.6 °F - 62.2 °F 99% 29.85 in 10.0 mi SE 3.5 mph - N/A   Clear
5:36 AM 62.4 °F - 62.1 °F 99% 29.86 in 10.0 mi SSE 3.5 mph - N/A   Clear
5:56 AM 62.2 °F - 62.1 °F 99% 29.86 in 10.0 mi SSE 4.6 mph - N/A   Clear
6:16 AM 62.1 °F - 62.1 °F 100% 29.86 in 10.0 mi Calm Calm - N/A   Clear
6:36 AM 61.7 °F - 61.7 °F 100% 29.87 in 10.0 mi Calm Calm - N/A   Clear
6:56 AM 60.6 °F - 60.6 °F 100% 29.87 in 10.0 mi Calm Calm - N/A   Clear
7:16 AM 61.2 °F - 61.2 °F 100% 29.87 in 10.0 mi Calm Calm - N/A   Clear
7:35 AM 61.7 °F - 61.7 °F 100% 29.88 in 10.0 mi Calm Calm - N/A   Scattered Clouds
7:56 AM 63.3 °F - 63.3 °F 100% 29.88 in 10.0 mi Calm Calm - N/A   Overcast
8:16 AM 64.2 °F - 64.2 °F 100% 29.88 in 10.0 mi Calm Calm - N/A   Mostly Cloudy
8:36 AM 66.2 °F - 64.9 °F 96% 29.88 in 10.0 mi Calm Calm - N/A   Scattered Clouds
8:56 AM 67.6 °F - 66.2 °F 95% 29.89 in 10.0 mi Calm Calm - N/A   Clear
9:16 AM 69.3 °F - 67.3 °F 93% 29.89 in 10.0 mi Calm Calm - N/A   Scattered Clouds
9:36 AM 69.8 °F - 67.5 °F 92% 29.90 in 10.0 mi NNW 4.6 mph - N/A   Overcast
9:55 AM 71.4 °F - 68.2 °F 89% 29.90 in 10.0 mi North 5.8 mph - N/A   Mostly Cloudy
10:16 AM 72.3 °F - 68.4 °F 87% 29.90 in 10.0 mi NNW 8.1 mph - N/A   Scattered Clouds
10:35 AM 72.7 °F - 68.0 °F 85% 29.91 in 10.0 mi North 5.8 mph - N/A   Mostly Cloudy
10:56 AM 74.1 °F - 66.9 °F 78% 29.91 in 10.0 mi North 6.9 mph - N/A   Scattered Clouds
11:16 AM 75.0 °F - 66.0 °F 73% 29.91 in 10.0 mi NNW 9.2 mph - N/A   Scattered Clouds
11:35 AM 75.9 °F - 65.8 °F 71% 29.91 in 10.0 mi NNW 9.2 mph - N/A   Scattered Clouds
11:56 AM 76.1 °F - 64.8 °F 68% 29.92 in 10.0 mi NW 11.5 mph - N/A   Scattered Clouds
12:15 PM 76.3 °F - 65.1 °F 68% 29.91 in 10.0 mi NW 10.4 mph 17.3 mph N/A   Scattered Clouds
12:36 PM 77.0 °F - 65.3 °F 67% 29.91 in 10.0 mi NNW 10.4 mph 16.1 mph N/A   Mostly Cloudy
12:56 PM 77.5 °F - 64.6 °F 64% 29.91 in 10.0 mi NW 9.2 mph - N/A   Scattered Clouds
1:15 PM 78.1 °F - 63.9 °F 61% 29.92 in 10.0 mi NNW 6.9 mph - N/A   Scattered Clouds
1:36 PM 78.3 °F - 65.3 °F 64% 29.92 in 10.0 mi NW 9.2 mph - N/A   Mostly Cloudy
1:56 PM 79.0 °F - 63.9 °F 60% 29.91 in 10.0 mi WNW 10.4 mph - N/A   Mostly Cloudy
2:15 PM 77.9 °F - 64.2 °F 63% 29.92 in 10.0 mi NW 8.1 mph - N/A   Mostly Cloudy
2:36 PM 78.8 °F - 63.9 °F 60% 29.92 in 10.0 mi NW 9.2 mph - N/A   Mostly Cloudy
2:55 PM 79.9 °F - 64.6 °F 59% 29.92 in 10.0 mi NW 10.4 mph - N/A   Mostly Cloudy
3:16 PM 78.8 °F - 63.1 °F 59% 29.92 in 10.0 mi NW 8.1 mph - N/A   Mostly Cloudy
3:36 PM 80.2 °F 81.9 °F 64.2 °F 58% 29.92 in 10.0 mi NW 11.5 mph 17.3 mph N/A   Mostly Cloudy
3:55 PM 79.3 °F - 63.7 °F 59% 29.92 in 10.0 mi NNW 6.9 mph - N/A   Mostly Cloudy
4:16 PM 79.2 °F - 63.3 °F 58% 29.92 in 10.0 mi WNW 11.5 mph 16.1 mph N/A   Mostly Cloudy
4:35 PM 79.0 °F - 63.3 °F 59% 29.92 in 10.0 mi WNW 10.4 mph - N/A   Scattered Clouds
4:56 PM 78.8 °F - 62.8 °F 58% 29.92 in 10.0 mi WNW 10.4 mph - N/A   Scattered Clouds
5:16 PM 78.8 °F - 63.3 °F 59% 29.92 in 10.0 mi NW 8.1 mph - N/A   Clear
5:35 PM 78.8 °F - 63.0 °F 58% 29.92 in 10.0 mi NNW 9.2 mph - N/A   Scattered Clouds
5:56 PM 78.1 °F - 63.0 °F 60% 29.92 in 10.0 mi WNW 10.4 mph - N/A   Scattered Clouds
6:16 PM 77.4 °F - 63.5 °F 62% 29.92 in 10.0 mi WNW 8.1 mph - N/A   Clear
6:35 PM 77.0 °F - 63.5 °F 63% 29.92 in 10.0 mi WNW 10.4 mph - N/A   Clear
6:56 PM 76.1 °F - 62.8 °F 63% 29.92 in 10.0 mi WNW 11.5 mph - N/A   Clear
7:16 PM 75.9 °F - 63.1 °F 64% 29.92 in 10.0 mi WNW 8.1 mph - N/A   Clear
7:36 PM 75.6 °F - 63.0 °F 65% 29.92 in 10.0 mi NW 6.9 mph - N/A   Clear
7:56 PM 74.7 °F - 63.1 °F 67% 29.92 in 10.0 mi WNW 8.1 mph - N/A   Clear
8:16 PM 73.6 °F - 63.3 °F 70% 29.93 in 10.0 mi WNW 5.8 mph - N/A   Clear
8:36 PM 72.0 °F - 63.0 °F 73% 29.93 in 10.0 mi WNW 5.8 mph - N/A   Clear
8:56 PM 69.8 °F - 63.5 °F 80% 29.93 in 10.0 mi WNW 5.8 mph - N/A   Clear
9:15 PM 68.9 °F - 63.1 °F 82% 29.94 in 10.0 mi NW 3.5 mph - N/A   Clear
9:35 PM 68.0 °F - 62.8 °F 83% 29.94 in 10.0 mi NW 3.5 mph - N/A   Clear
9:56 PM 68.4 °F - 62.8 °F 82% 29.94 in 10.0 mi Calm Calm - N/A   Clear
10:15 PM 66.2 °F - 62.8 °F 89% 29.95 in 10.0 mi NW 3.5 mph - N/A   Clear
10:36 PM 66.2 °F - 63.0 °F 89% 29.95 in 10.0 mi NNW 3.5 mph - N/A   Clear
10:55 PM 66.2 °F - 62.4 °F 88% 29.95 in 10.0 mi Calm Calm - N/A   Clear
11:16 PM 64.9 °F - 62.6 °F 92% 29.95 in 10.0 mi Calm Calm - N/A   Clear
11:36 PM 65.3 °F - 62.1 °F 89% 29.95 in 10.0 mi NNW 3.5 mph - N/A   Clear